Location: Dal�� Lhota
(48.7500°N, 14.0167°E)
Time: 22:25:30
(UTC+00:00)

Okean 2 Rocket - Pass Details

Date: 24 September 2020
Orbit: 616 x 642 km, 82.5° (Epoch: 25 October)

Event Time Altitude Azimuth Distance (km) Brightness Sun altitude
Rises 18:28:08 0° 204° (SSW) 2,927 6.6 -15.7°
Reaches altitude 10° 18:30:27 10° 211° (SSW) 2,020 5.8 -16.0°
Maximum altitude 18:34:46 46° 285° (WNW) 855 4.2 -16.7°
Drops below altitude 10° 18:39:05 10° 359° (N) 2,020 5.9 -17.4°
Sets 18:41:24 0° 5° (N) 2,927 6.7 -17.7°
